sat.trackr.live / text

‹ back to catalog

GEESAT-4 02

NORAD 65120 · 2025-170B

PAYLOAD ACTIVE UNKNOWN

§ Identity

Operator
Country
PRC
Launch date
2025-08-08
Launch site
YSLA
Launch vehicle
Mass (kg)
RCS (m²)

External: N2YO · Heavens-Above · Gunter

§ Orbital elements

Epoch: 2026-05-25T04:34:15.776832Z

Period
97.04 min
Inclination
49.9863°
Eccentricity
0.0009536
Mean motion
14.83887117 rev/d
Perigee alt
610.4 km
Apogee alt
623.8 km
Semi-major
6,995.2 km
B*
1.9706e-4
RAAN
280.9192°
Arg perigee
358.9289°
Mean anomaly
1.1627°
Rev number
4,304

§ Raw data

GEESAT-4 021 65120U 25170B   26145.19046038  .00001426  00000+0  19706-3 0  99962 65120  49.9863 280.9192 0009536 358.9289   1.1627 14.83887117 43049

JSON: /api/v1/satellites/65120 · /tle

For live sub-satellite position, see the globe view (requires WebGL).

§ Visibility from observer

Set your observer location to see the next 7 days of passes ≥ 10°. The values pass through the URL so the page stays shareable.

No JS? Fill the form by hand. The geolocation button needs JavaScript.